Regional Weather Roundup
Issued by NWS

Home | Current Version | Previous Version | Text Only | Print | Product List | Glossary On
Versions: 1 2 3 4 5 6 7 8 9 10 11 12 13 14 15 16 17 18 19 20 21 22 23 24 25 26 27 28 29 30 31 32 33 34 35 36 37 38 39 40 41 42 43 44 45 46 47 48 49 50
000
ASUS44 KJAN 130810
RWRMS

MISSISSIPPI HOURLY WEATHER ROUNDUP
NATIONAL WEATHER SERVICE JACKSON MS
200 AM CST SAT FEB 13 2016

NOTE: "FAIR: INDICATES FEW OR NO CLOUDS BELOW 12,000 FEET WITH NO
SIGNIFICANT WEATHER AND/OR OBSTRUCTIONS TO VISIBILITY.

MSZ001>002-007>008-010>013-018>021-025>028-034>036-130900-
NORTHWEST MISSISSIPPI

CITY           SKY/WX    TMP DP  RH WIND       PRES   REMARKS
CLEVELAND      FAIR      39  32  76 NE9       30.44R WCI  33
GREENWOOD      CLEAR     36  28  73 N8        30.43R WCI  30
GREENVILLE     CLOUDY    41  30  65 N12       30.42R
OLIVE BRANCH   CLEAR     32  16  51 N13G20    30.48R WCI  22
OXFORD         FAIR      32  23  69 N7G17     30.45S WCI  26
TUNICA         SUNNY     34  25  69 N16       30.49R WCI  23
$$

MSZ003>006-009-014>017-022>024-029>033-037>039-130900-
NORTHEAST MISSISSIPPI

CITY           SKY/WX    TMP DP  RH WIND       PRES   REMARKS
COLUMBUS AFB   CLEAR     36  28  70 N7        30.39R WCI  31
CORINTH        FAIR      32  18  55 N9G15     30.44S WCI  24
GOLDN TRIANGLE CLEAR     36  23  60 N12       30.38S WCI  27
STARKVILLE     FAIR      36  28  75 N6        30.40R WCI  31
TUPELO         CLEAR     33  23  66 N14       30.43R WCI  23
$$

MSZ040-058-130900-
CENTRAL MISSISSIPPI

CITY           SKY/WX    TMP DP  RH WIND       PRES   REMARKS
JACKSON INTL   CLEAR     45  32  60 N8        30.36R
JACKSON HAWKNS CLEAR     45  30  55 N5        30.37R
MERIDIAN KEY   CLEAR     42  28  57 N8        30.36S
MERIDIAN NAS   CLEAR     40  27  59 N5        30.36F
VICKSBURG      CLEAR     44  35  70 N3        30.38S
$$

MSZ059>079-130900-
SOUTH MISSISSIPPI

CITY           SKY/WX    TMP DP  RH WIND       PRES   REMARKS
BROOKHAVEN     FAIR      57  48  72 N6        30.36R
HATTIESBURG    CLEAR     49  33  54 N6        30.34S
MCCOMB         PTCLDY    48  35  60 N3        30.33S
NATCHEZ        CLEAR     48  30  49 NE6       30.36R
PINE BELT      CLEAR     45  30  57 N8        30.34S
$$

MSZ080>082-130900-
COASTAL MISSISSIPPI

CITY           SKY/WX    TMP DP  RH WIND       PRES   REMARKS
BILOXI         CLEAR     53  37  55 N7        30.29R
PASCAGOULA     PTCLDY    50  37  61 N12       30.29R
GULFPORT       CLEAR     52  33  48 N10       30.29S
$$




USA.gov is the U.S. government's official web portal to all federal, state and local government web resources and services.